Location: Chena
(64.8152°N, 147.9227°W)
Time: 07:56:32
(UTC+00:00)

N. Korean satellite - Pass Details

Date: 23 January 2021
Orbit: 451 x 502 km, 97.2° (Epoch: 08 March)

Event Time Altitude Azimuth Distance (km) Brightness Sun altitude
Rises 03:44:35 0° 217° (SW) 2,587 11.1 -15.5°
Reaches altitude 10° 03:47:31 10° 243° (WSW) 1,700 10.5 -15.8°
Maximum altitude 03:49:32 14° 276° (W) 1,456 10.0 -16.0°
Drops below altitude 10° 03:51:32 10° 310° (NW) 1,693 9.8 -16.2°
Sets 03:54:27 0° 336° (NNW) 2,567 10.4 -16.5°
